Temp
29 29 28 27 26 26 26 27 27 27 26 24 21 22 22 22 22 21 22 22 21 21 20 20 20 19 20 19 20 20 21 21 21 21 20 20 19 17 15 14 14 14 14
29 29 28 28 27 27 26 26 26 26 25 24 22 22 22 22 22 22 22 22 22 21 21 20 20 20 19 19 20 19 19 19 19 19 19 19 18 15 13 13 13 14 14
30 29 28 28 27 26 26 26 26 26 24 22 21 21 21 22 22 22 22 21 21 21 21 20 20 19 19 19 18 18 18 18 18 18 18 18 15 13 12 12 13 13 13
31 29 28 27 27 26 26 26 25 25 23 22 22 20 22 22 22 22 22 21 21 21 20 20 20 19 19 18 17 17 18 16 17 17 17 15 13 12 12 12 12 13 13
31 29 28 27 27 27 26 25 24 24 23 23 22 22 22 22 23 22 22 21 21 20 20 20 20 19 18 17 17 16 15 15 16 15 15 13 12 11 11 11 11 12 13
30 29 28 27 27 26 25 24 24 22 21 22 23 23 22 23 24 22 21 21 20 20 20 20 19 19 19 18 16 16 15 15 15 15 13 12 11 11 11 11 12 12 13
29 29 28 27 26 25 24 23 23 21 21 22 22 22 22 22 21 21 20 20 20 20 20 19 19 19 18 16 15 15 16 16 16 14 13 11 11 10 10 11 13 12 13
29 28 27 25 24 23 22 22 21 21 21 21 22 22 22 22 21 20 20 18 19 19 19 19 18 18 17 15 14 15 16 16 15 14 13 11 10 10 10 13 13 13 14
28 27 24 23 23 21 21 21 21 21 21 21 22 22 21 21 20 20 19 19 20 20 19 19 18 18 16 15 14 14 15 15 15 14 14 11 10 9 10 11 13 14 14
27 25 23 22 22 22 22 22 22 21 21 22 21 21 21 21 20 19 18 19 21 21 20 20 18 16 14 14 13 13 14 14 13 13 14 12 11 9 10 10 10 13 14
27 25 24 23 23 22 22 22 21 21 21 21 21 21 21 20 19 18 17 17 19 19 20 20 17 16 15 14 13 13 13 14 14 16 14 13 11 9 9 10 11 12 11
26 25 25 24 23 22 21 20 21 21 21 21 21 21 21 19 18 17 16 17 17 16 18 18 16 15 14 15 14 14 14 15 15 17 15 14 13 12 11 10 11 10 11
25 24 23 22 21 21 21 21 21 21 22 22 21 21 20 19 16 15 16 16 16 16 17 16 15 15 15 16 15 15 15 14 15 17 17 15 15 14 14 12 12 11 11
23 22 22 22 21 21 21 22 21 21 22 22 21 21 20 19 18 16 16 16 16 17 17 17 17 16 16 16 16 16 14 14 14 15 15 15 15 15 15 14 13 11 10
24 23 22 21 21 20 19 19 20 20 21 22 21 21 20 19 18 18 18 18 16 16 15 18 18 17 17 16 16 15 14 13 14 15 15 15 14 14 15 15 16 15 10
24 24 23 22 20 19 18 17 19 19 19 19 18 20 19 19 17 17 16 15 15 15 17 18 17 16 16 15 15 15 14 13 13 14 14 14 16 15 15 15 15 17 16
24 21 20 20 20 19 19 19 18 16 17 18 18 18 18 17 16 16 15 15 15 16 18 17 16 15 15 15 14 14 14 13 13 14 14 14 14 16 15 15 15 15 16
21 20 20 20 19 19 20 19 19 18 18 15 15 16 16 15 15 15 14 14 17 17 17 16 15 14 14 14 13 13 13 13 13 13 13 13 14 15 15 16 15 14 15
20 21 22 23 23 21 20 20 22 20 19 17 13 13 14 14 14 14 15 16 18 17 16 15 14 14 13 13 12 12 12 11 11 12 12 12 12 13 14 15 16 15 15
21 21 23 22 21 22 21 21 20 19 19 18 17 15 14 13 15 16 17 17 16 16 15 15 14 13 12 12 12 12 13 12 12 12 13 13 13 13 13 13 14 14 16
23 21 20 21 22 22 21 22 20 19 19 19 19 17 15 17 17 17 17 16 16 15 14 13 14 13 13 12 12 12 13 12 12 12 12 13 13 14 14 14 14 13 13
24 23 22 23 24 22 22 20 20 19 20 20 19 16 15 17 16 16 17 16 14 13 13 12 13 12 12 11 11 11 12 11 11 11 11 12 12 13 14 14 14 14 12
23 24 24 23 24 22 22 22 21 21 20 20 18 16 16 16 16 17 16 15 14 13 13 12 12 12 11 11 11 10 9 9 9 10 10 12 12 12 13 14 13 13 13
23 23 24 24 23 23 20 21 19 19 20 19 18 17 17 14 15 15 16 15 14 13 13 12 11 10 10 10 9 8 6 7 6 8 8 11 11 12 13 13 13 13 13
23 23 23 23 22 21 20 20 20 19 19 19 18 15 13 14 14 16 15 14 14 13 13 12 11 10 9 8 6 6 7 7 7 7 8 11 11 11 12 12 13 12 12
21 20 20 20 20 20 19 20 19 19 18 16 15 16 14 15 15 16 15 14 14 13 13 12 10 10 9 7 7 7 7 7 7 8 9 10 11 10 11 12 12 12 12
Height
762 767 772 776 780 784 787 788 790 793 798 802 806 810 808 812 812 811 811 811 812 814 816 816 815 815 813 810 807 801 795 790 781 773 771 763 757 752 747 736 732 727 722
754 761 765 769 773 778 780 783 786 789 794 795 798 795 805 809 810 807 806 807 809 811 812 812 811 811 808 805 801 799 795 789 782 771 767 757 752 747 738 728 721 718 713
748 754 760 764 767 771 774 777 781 784 790 794 798 803 807 808 806 802 803 804 808 808 810 810 808 806 804 801 798 796 792 787 781 772 760 753 746 741 729 721 714 708 704
741 748 753 757 761 765 769 773 777 780 785 789 792 795 803 802 800 797 799 802 805 808 808 808 806 804 802 799 796 793 788 784 777 768 758 749 741 731 724 715 704 701 696
735 741 747 752 756 760 764 769 773 776 780 785 789 792 795 794 793 795 799 802 804 805 807 806 803 800 797 796 794 790 788 782 774 766 757 747 735 725 719 708 700 691 688
731 736 741 746 751 756 761 765 770 775 778 782 785 786 787 787 790 794 797 800 802 803 804 803 801 798 794 793 790 787 785 778 772 766 757 744 733 724 711 700 689 683 682
728 734 738 742 747 752 758 762 767 771 776 779 781 785 789 788 790 794 795 799 800 799 800 799 798 796 793 790 787 784 779 775 771 766 757 745 731 720 707 691 682 679 678
726 730 734 739 745 750 754 758 762 766 770 776 780 781 781 784 788 790 792 795 797 797 797 798 796 795 790 788 785 782 777 772 767 763 759 746 731 717 704 689 682 679 676
722 728 733 737 741 745 748 752 758 763 767 768 776 782 786 783 786 789 791 793 794 794 794 793 791 791 788 785 783 780 775 770 765 761 755 743 728 716 703 692 684 679 675
721 727 732 735 738 742 747 751 753 756 758 771 776 777 780 785 786 788 790 792 791 792 791 788 786 787 787 783 781 779 774 769 763 756 752 743 729 717 706 698 691 685 679
723 730 735 738 741 746 752 756 762 766 765 763 773 774 781 785 784 788 790 791 791 791 789 786 784 784 783 781 780 778 775 769 762 756 751 744 733 723 713 704 697 693 687
729 732 736 742 745 741 752 762 766 771 774 772 772 774 775 786 783 786 790 789 791 792 790 786 784 783 782 780 780 778 773 767 762 755 750 746 739 731 723 714 706 698 694
727 732 740 729 748 752 752 759 764 770 772 770 776 777 779 784 783 787 790 790 790 790 790 786 782 783 781 779 779 777 773 769 764 757 752 748 742 736 729 721 714 705 699
724 730 740 741 748 750 751 753 752 761 765 769 770 775 780 782 781 786 787 787 788 789 788 784 782 782 780 780 779 777 774 771 767 761 756 752 746 739 733 725 720 713 706
731 733 739 743 748 750 753 757 760 757 762 763 766 770 777 778 779 783 784 786 788 787 787 783 782 783 782 781 781 778 776 773 768 763 760 755 751 746 739 732 725 722 720
734 737 742 747 750 752 756 757 757 760 763 763 770 771 774 776 779 783 785 788 788 787 787 785 785 785 784 783 782 780 778 775 771 767 763 758 752 749 744 739 732 726 724
729 733 735 742 748 747 749 757 758 763 766 766 770 771 774 777 781 783 786 789 788 788 787 787 788 787 787 786 784 781 779 777 774 770 767 762 757 752 748 745 740 736 731
730 737 734 743 741 748 750 753 759 761 765 772 772 775 775 779 782 784 787 787 787 788 791 791 791 790 789 788 787 784 783 780 777 774 771 766 762 758 752 748 747 744 741
732 737 737 736 737 743 748 753 753 758 763 770 772 778 778 782 784 786 787 787 787 789 792 793 793 792 792 790 789 787 786 784 781 778 775 772 769 764 758 754 751 748 746
734 736 734 737 742 745 745 751 755 759 764 767 771 776 781 784 784 785 787 789 790 793 795 794 794 794 793 792 790 788 787 785 783 780 777 774 771 768 766 762 758 755 750
735 739 735 736 739 742 745 749 755 761 761 763 768 774 779 780 781 784 787 791 793 795 796 796 795 794 793 793 792 790 788 787 785 783 780 777 774 770 768 766 764 762 759
732 733 737 733 735 742 744 746 751 755 758 760 765 773 779 781 783 786 788 792 794 797 797 797 796 796 795 795 794 792 791 789 788 786 783 780 777 774 771 769 766 764 764
732 732 733 736 735 740 743 746 749 751 755 759 767 775 779 782 785 785 788 792 795 797 798 798 797 797 797 797 796 795 794 792 790 788 786 783 780 779 775 772 771 768 767
732 733 733 733 735 738 744 746 751 754 755 761 767 772 777 782 785 788 790 793 796 798 798 799 799 799 799 799 798 797 794 791 790 790 788 785 783 780 778 777 775 773 771
730 734 734 734 737 741 747 748 750 753 757 761 766 772 779 784 786 788 791 794 796 797 799 800 801 802 802 801 800 798 795 792 790 789 788 787 785 783 782 780 778 777 776
734 738 739 741 742 744 748 749 752 753 760 765 768 773 779 783 785 787 791 794 795 797 799 801 803 804 804 803 800 799 796 794 793 791 789 788 787 786 784 783 782 780 779
Wind_Speed
34 33 32 31 31 30 29 27 29 24 19 20 17 12 11 11 10 9 6 6 6 7 9 11 12 14 18 21 23 24 25 26 19 29 34 37 38 36 42 42 36 34 33
33 31 31 29 28 27 28 27 26 26 21 23 21 18 12 13 10 9 8 7 7 9 10 10 13 16 17 19 21 24 27 26 27 28 32 36 37 41 38 41 38 32 31
29 28 26 26 25 26 26 26 25 24 19 19 16 12 12 13 11 9 8 8 9 10 10 11 14 16 19 19 21 22 25 27 29 31 33 35 41 37 39 38 37 36 33
27 25 24 25 24 24 24 22 22 21 16 18 20 18 19 13 10 9 8 9 9 10 10 12 15 18 18 21 19 23 23 29 30 30 34 36 37 39 32 31 34 29 27
25 25 24 22 22 21 20 20 21 19 16 19 16 15 15 11 10 10 9 9 8 9 11 14 16 18 23 17 19 19 24 27 27 30 30 33 34 31 30 36 32 34 30
23 24 22 21 19 17 17 18 15 15 18 14 15 14 12 10 11 12 8 6 7 8 12 15 18 20 12 19 15 25 26 28 27 26 32 29 31 35 36 34 31 21 7
22 21 19 18 17 16 14 15 16 18 15 15 15 12 10 8 6 7 8 8 9 10 12 14 17 18 18 14 20 25 24 24 22 26 30 35 35 38 40 36 21 12 15
22 21 20 19 17 16 16 20 22 22 19 18 15 14 12 10 9 7 8 8 9 11 12 14 15 15 15 19 23 22 23 23 21 22 31 36 38 42 37 26 17 14 14
23 20 19 20 20 21 22 22 21 20 20 19 15 12 11 10 8 10 9 7 10 11 12 13 14 13 14 19 18 20 22 23 22 21 31 46 44 40 39 33 21 12 4
21 21 22 23 23 21 21 22 24 23 23 16 13 14 12 9 9 9 10 7 11 10 12 9 5 3 13 17 17 17 21 23 29 27 23 43 50 44 41 37 29 18 11
19 18 17 16 15 14 15 15 15 15 17 18 15 14 10 11 10 11 9 4 8 8 11 11 5 16 20 17 14 13 20 24 24 23 22 28 44 43 43 38 33 25 22
15 16 15 11 11 19 17 12 11 11 10 11 14 13 13 11 8 8 7 5 5 7 9 9 11 16 16 13 11 18 19 20 21 20 18 22 30 37 42 42 33 29 31
18 16 14 23 17 19 20 17 15 14 11 13 12 13 13 10 5 7 6 2 2 5 6 8 11 13 14 15 15 14 15 17 20 20 20 20 25 30 33 31 41 35 31
19 17 14 16 16 17 18 19 21 16 16 17 17 12 10 12 11 7 6 4 4 5 8 5 8 8 8 11 13 13 14 18 19 19 21 22 23 25 25 21 27 39 30
14 15 15 15 14 13 9 8 9 10 11 8 12 11 11 12 10 9 5 3 2 3 6 5 8 9 10 11 12 13 14 17 17 18 19 19 20 23 23 25 17 20 27
13 11 12 12 13 8 9 8 9 6 7 6 5 11 11 14 15 11 6 4 5 4 3 7 7 9 10 11 12 13 14 17 17 17 18 20 19 19 20 21 25 21 21
14 16 16 13 13 14 16 10 10 9 6 7 6 8 11 18 15 12 11 10 6 3 5 7 7 9 10 10 12 13 14 15 15 16 17 18 21 20 17 21 21 21 19
10 11 13 15 14 14 11 11 14 13 12 10 13 15 18 19 16 14 10 4 2 5 6 6 7 8 9 10 11 12 13 14 15 16 17 18 19 17 21 18 20 19 19
11 12 13 9 10 13 13 12 15 15 14 14 18 19 19 18 15 11 5 3 5 5 5 5 7 7 8 9 10 11 11 13 14 15 16 16 17 20 19 19 17 16 18
4 5 3 8 4 5 5 6 7 10 15 16 18 18 18 16 11 7 5 4 5 5 4 5 5 6 7 8 9 10 10 11 12 13 14 15 15 14 16 18 18 18 17
11 7 4 5 15 16 17 9 9 12 14 16 17 19 19 12 10 7 6 5 5 4 4 5 5 6 7 8 9 9 10 10 12 12 13 14 14 15 15 14 15 17 17
4 13 9 10 9 6 11 20 19 16 16 15 17 24 20 10 10 7 7 6 5 4 4 4 5 7 8 9 9 10 10 10 11 12 12 13 14 14 13 14 15 15 18
5 4 6 6 2 6 5 5 7 9 12 16 20 19 17 12 10 9 7 7 5 5 5 5 6 7 8 8 9 10 10 9 10 11 11 12 12 12 13 13 14 14 14
4 5 5 5 1 5 5 7 10 13 15 18 19 18 15 12 11 9 8 7 6 5 6 6 8 9 8 8 9 10 10 10 8 8 8 11 11 12 11 11 11 13 13
6 6 3 2 2 8 6 6 11 16 13 16 17 19 17 18 13 9 8 7 7 7 6 6 7 7 9 10 10 11 12 11 11 9 8 10 9 9 9 10 10 11 12
5 2 2 0 5 4 9 8 10 16 16 16 19 19 19 18 15 10 9 9 8 8 7 7 7 7 6 7 10 12 13 11 10 11 10 8 9 10 9 9 9 10 10
Wind_Direction
208 213 214 215 217 219 221 222 221 223 217 219 217 219 207 218 216 225 244 257 251 257 268 281 299 306 312 317 314 305 315 315 313 304 310 304 307 311 307 305 301 293 284
207 211 213 214 216 217 220 223 225 224 218 224 212 208 211 219 217 220 235 251 241 250 266 287 299 308 311 311 318 316 315 313 314 309 309 306 310 313 304 300 299 291 286
203 208 213 213 214 215 219 219 224 225 220 208 207 193 235 215 215 218 233 243 250 256 275 292 302 309 309 317 320 313 317 315 316 308 307 311 309 312 306 301 297 291 288
200 202 207 212 213 217 219 220 223 219 213 202 193 192 213 211 211 210 226 236 245 263 279 294 305 310 320 315 314 317 318 321 312 312 314 310 313 311 302 297 298 291 282
194 197 203 206 211 214 212 216 216 217 214 208 201 205 209 209 212 213 224 237 253 276 287 298 304 314 308 309 311 319 319 316 313 313 318 315 311 312 309 302 286 284 284
188 194 196 196 199 201 194 202 204 203 197 193 216 212 209 210 219 202 206 244 264 278 287 300 309 311 335 324 320 319 321 307 314 330 320 311 311 312 308 305 288 276 285
182 189 183 183 173 171 181 181 190 177 180 198 203 207 212 197 185 208 229 238 264 279 291 299 307 315 324 326 322 323 323 325 329 336 334 326 322 323 317 307 311 263 266
175 176 167 167 167 170 172 175 184 183 192 194 198 194 192 195 202 231 243 239 267 279 287 301 307 313 317 323 326 323 323 328 340 335 348 337 337 337 333 328 325 310 303
169 161 164 167 167 172 176 181 184 184 181 176 186 187 192 182 213 239 234 243 270 273 295 295 289 304 304 325 330 325 324 329 334 330 347 5 1 356 0 6 354 339 312
160 166 172 174 173 171 171 176 175 170 170 177 174 179 191 196 212 228 226 255 283 298 300 311 303 319 332 335 330 326 326 328 328 323 337 358 8 1 10 11 360 359 348
155 157 164 164 161 164 168 163 159 170 170 165 180 176 185 201 206 226 229 249 295 303 309 320 23 343 329 330 328 322 323 322 326 323 356 350 3 1 8 16 17 14 18
142 142 141 144 154 149 139 143 160 181 169 178 176 177 178 188 201 211 214 222 282 307 308 338 345 342 352 350 327 334 341 340 330 336 3 355 354 356 5 17 25 23 25
129 116 120 133 149 143 144 156 163 182 186 193 191 205 160 181 157 204 207 238 331 326 314 328 359 352 354 346 337 340 347 349 343 350 358 359 349 350 0 10 28 29 32
121 121 144 142 153 158 164 173 173 186 201 205 199 199 181 183 166 176 197 234 277 317 329 327 337 331 341 349 343 352 354 352 349 358 358 360 357 353 2 355 30 29 24
115 122 135 144 152 158 160 178 182 163 209 209 194 184 189 185 154 168 142 108 344 355 341 339 358 355 356 357 352 357 3 359 360 359 5 0 8 5 6 3 11 37 43
115 127 140 144 148 147 142 120 137 133 159 134 126 145 142 174 159 162 139 95 80 62 351 14 9 4 2 360 355 2 3 4 4 3 3 1 2 16 5 19 11 27 34
142 145 152 163 177 171 185 167 136 132 137 146 171 161 158 144 142 123 108 87 78 10 20 25 16 10 3 2 1 4 6 3 5 9 7 9 2 5 29 20 25 18 29
134 155 153 177 166 178 176 179 167 164 155 125 135 147 141 135 124 120 129 147 182 54 36 22 22 15 8 8 7 9 2 6 8 12 13 10 9 14 8 27 31 25 26
148 182 190 179 159 172 174 194 196 174 150 145 134 136 136 133 129 126 95 39 48 47 28 37 26 21 18 15 12 10 7 8 11 12 15 16 13 6 11 14 21 41 31
136 116 140 113 131 193 144 219 213 168 158 152 159 156 156 146 148 141 123 91 80 53 40 37 33 21 28 19 13 10 8 13 11 12 13 14 13 23 21 11 23 19 20
151 156 204 247 180 182 176 184 171 176 179 163 169 167 171 168 146 146 133 115 95 79 58 28 28 34 30 25 17 8 12 15 13 12 11 11 12 14 16 21 22 31 16
236 158 177 233 145 171 219 174 173 178 179 175 148 151 162 157 145 157 138 125 107 88 76 63 47 43 37 30 21 11 9 13 12 9 8 8 14 8 16 21 21 27 29
197 209 171 208 166 117 192 174 189 171 169 163 146 158 166 160 186 140 138 123 120 105 87 71 62 53 46 37 30 21 13 7 4 3 6 7 13 8 16 21 25 25 31
178 206 201 176 129 135 92 167 171 174 166 165 161 166 162 160 148 147 147 131 128 118 105 88 75 66 57 47 38 25 18 15 16 6 358 6 10 10 18 20 27 26 31
173 211 235 16 90 149 181 192 177 158 147 153 148 147 159 164 169 169 140 146 141 124 108 99 89 77 65 57 46 32 25 30 44 30 9 9 13 7 23 28 18 35 29
87 85 65 306 239 195 156 188 144 140 148 152 152 159 162 173 181 159 157 155 149 132 120 107 98 90 79 54 40 33 30 42 60 44 21 18 23 26 16 31 28 34 41